COSMOS 1275 DEB, 19026

Orbit data source: Space-Track

COSMOS 1275 DEB, 19026 is space debris in LEO originally from a launch on Thu, 04 Jun 1981 UTC launched from the Plesetsk Missile And Space Complex (PKMTR). Debris objects in space refer to the collection of defunct objects orbiting the Earth. Examples of debris include non-operational satellites, rocket bodies, and fragments generated from explosions, collisions, or faulty payload assembly.

Loading next visibility...
Identifier
19026, 1981-053MD
Orbit
LEO
Country
Flag of CISCIS
Related business
Manufacturer
Unknown
Mission
Spacecraft
Bus & Motor
Unknown
Mass
Unknown
Launch date (UTC)
1981-06-04 (45 years ago)
Launch vehicle
Unknown
Launch site
Plesetsk Missile And Space Complex (PKMTR)
Object type
Payload
Rocket body
Debris
Shape & HBR
Unknown shape, 0.1 m
Radar Cross Section
Small (<0.1 m²)

Expand to show TLE details & history
Last TLE update: 1 day ago

TLE from 1 day ago
0 COSMOS 1275 DEB
1 19026U 81053MD  26061.42352012  .00001448  00000-0  13435-2 0  9994
2 19026  83.1671 218.1116 0110683  39.0613 350.6789 13.78883770 36792
Epoch: 2026-03-02T10:09Z
TLE epoch observation values (Epoch: 2026-03-02T10:09:52.138Z)
Latitude
29.34979°
Longitude
-90.72965°
Altitude
891.278 km
Speed
7.449 km/s
True Right ascension
14h 47m 49s
True Declination
29° 12' 21"
Sunlit
Object was in full shadow at epoch
Visualization orbit readout
Latitude
Unknown
Longitude
Unknown
Altitude
Unknown
Speed
Unknown
Apparent Right ascension
Unknown
Apparent Declination
Unknown
Sunlit
N/A
Visualization observer readout
Local Sidereal Time
15:17:21
Azimuth
Unknown
Elevation
Unknown
Doppler factor
Unknown
Orbital elements
Apogee altitude
1,046.259 km
Perigee altitude
883.707 km
Semi-major axis
7,343.12 km
Eccentricity
0.01107
Inclination
83.1671°
RAAN
218.1116°
Arg. of periapsis
39.0613°
True anomaly
350.47063°
Mean anomaly
350.6789°
Eccentric anomaly
350.57505°
Mean motion
3.44923 °/min
Orbital period
104.37 mins
BSTAR
0.0013435
Loading maneuver chart data...
Computing Atmospheric mass density...

Documentation

Showing up to 5 results
|